GFSNIL_sfc_thetae_000.txt.gz
Theta_e
298 299 298 298 294 296 295 295 295 294 294 293 293 292 291 290 290 290 289 288 288 289
300 300 299 299 296 297 294 296 293 293 292 292 291 291 291 289 288 288 287 287 287 287
300 299 297 295 294 293 293 294 293 291 290 291 290 290 290 288 288 287 287 288 287 286
296 296 295 293 293 293 293 294 294 292 290 289 288 287 286 287 287 287 285 285 284 283
296 295 293 292 291 292 291 291 291 291 290 287 286 286 285 285 285 283 282 282 281 281
296 296 292 290 291 291 289 290 290 289 287 286 286 285 284 283 282 281 281 280 280 280
291 293 290 289 290 291 292 292 288 287 287 287 285 285 283 282 280 280 280 281 280 279
292 291 291 292 291 292 291 292 287 286 285 284 284 283 280 280 280 279 279 279 279 279
292 292 291 290 291 290 290 286 285 284 284 283 284 284 284 281 278 279 278 277 278 278
291 291 290 291 290 290 286 285 283 283 282 281 281 284 284 284 279 278 277 278 277 278
289 289 289 290 289 288 286 284 282 281 281 281 282 285 285 283 279 279 278 278 278 277
288 288 288 289 288 288 284 280 281 281 281 280 280 284 284 281 277 277 277 278 278 278
289 288 288 287 286 284 281 282 281 280 279 281 278 282 281 280 274 271 275 276 277 278
288 288 287 286 283 281 281 281 278 278 278 278 278 278 280 279 275 274 275 274 275 276

GFSNIL_sfc_thetae_003.txt.gz
Theta_e
296 296 296 298 297 295 293 293 293 292 292 292 291 290 290 288 287 287 285 285 285 285
298 298 296 296 294 292 292 294 293 292 293 293 292 290 289 288 286 286 285 284 284 284
295 295 295 294 293 292 292 295 294 294 293 291 291 290 288 287 286 286 285 286 284 282
293 294 293 292 292 292 292 292 292 292 291 290 289 287 286 285 286 286 284 282 281 281
291 291 291 291 290 291 291 289 289 289 291 288 286 285 285 285 284 282 281 280 280 280
288 289 289 288 288 289 290 291 291 290 286 285 286 286 285 283 281 280 280 280 279 279
289 289 287 287 288 289 290 289 288 288 286 286 285 284 283 281 280 280 280 280 280 279
289 289 289 288 288 288 289 289 288 286 284 284 284 283 280 280 280 279 279 279 279 279
289 289 289 289 288 291 289 288 283 282 282 282 283 285 285 283 279 279 278 277 278 278
289 288 288 288 289 287 286 282 282 281 281 281 280 285 285 286 281 280 278 279 278 278
288 287 287 287 287 286 288 286 280 280 281 280 282 285 284 282 278 278 277 277 276 276
287 287 286 286 286 285 284 280 280 281 280 279 278 282 281 279 275 276 275 276 276 277
287 286 286 285 284 284 279 281 280 280 278 279 276 280 280 278 274 270 274 275 276 277
286 285 284 284 282 280 280 279 278 278 276 277 277 276 278 278 272 273 274 274 274 276

GFSNIL_sfc_thetae_006.txt.gz
Theta_e
294 294 295 295 294 294 292 292 292 292 291 291 293 291 292 290 287 287 285 284 284 284
294 293 293 293 293 292 292 293 292 290 293 293 292 291 290 287 288 286 286 285 285 284
290 290 290 290 290 291 291 292 293 292 293 292 291 290 289 286 286 286 285 285 284 282
289 289 289 289 289 289 290 291 291 291 291 288 288 288 285 284 284 285 284 282 281 281
288 288 288 288 288 288 288 288 289 289 289 288 287 285 283 283 284 282 281 281 280 280
287 287 287 286 286 287 287 287 288 289 287 286 284 284 283 283 282 281 280 280 280 279
287 287 287 287 286 286 287 288 289 287 287 285 284 283 283 282 280 280 280 280 280 279
287 287 287 287 287 287 287 290 287 287 284 282 283 283 281 281 280 279 279 279 280 280
288 288 287 287 287 287 290 288 283 280 281 281 282 285 286 285 281 280 279 280 279 279
287 287 286 286 286 286 285 284 282 281 281 280 282 286 285 283 279 278 278 277 276 276
286 285 285 285 285 285 285 284 280 280 280 280 281 283 283 281 277 277 276 276 276 275
285 285 285 284 284 284 284 282 280 280 279 278 278 281 281 279 276 276 275 276 276 276
285 284 284 283 283 282 280 280 280 279 277 279 276 279 279 278 274 270 274 275 276 277
284 283 283 282 281 279 279 278 277 277 276 276 277 276 278 278 273 273 274 274 274 275

GFSNIL_sfc_thetae_009.txt.gz
Theta_e
299 298 297 297 297 296 297 298 301 301 299 298 299 298 297 296 295 295 294 293 292 291
296 296 295 296 296 295 297 298 300 299 298 299 298 297 296 295 295 294 294 293 293 292
295 295 296 296 295 295 297 298 299 298 298 297 298 296 295 294 294 292 293 292 292 291
295 295 295 295 295 295 296 297 298 298 296 297 295 295 294 293 292 291 292 292 289 288
294 295 294 294 294 295 294 296 295 294 294 294 294 294 292 291 291 290 289 289 287 287
293 293 294 294 294 294 294 293 294 294 292 292 293 291 290 290 289 288 287 287 286 286
293 293 293 294 294 294 294 294 294 293 293 293 291 289 289 288 287 286 286 286 286 285
293 294 294 293 293 293 294 295 293 290 288 288 288 287 287 287 286 286 286 285 284 283
292 293 293 292 292 293 293 293 290 289 288 287 286 286 286 286 285 284 282 281 281 281
291 292 292 291 291 291 292 293 292 288 288 287 287 284 283 282 282 281 281 280 279 279
291 290 291 290 290 291 291 291 291 288 287 286 284 282 281 281 282 281 280 279 279 279
290 290 290 289 290 290 290 290 288 287 285 283 282 280 280 280 281 279 279 279 279 279
290 289 289 289 289 289 289 285 286 284 283 280 281 279 279 280 280 279 278 279 279 278
290 289 289 289 288 287 286 285 284 282 282 281 280 280 278 279 280 279 278 277 277 278

GFSNIL_sfc_thetae_012.txt.gz
Theta_e
300 300 299 299 299 298 298 298 300 302 303 304 303 301 299 300 299 297 296 295 294 293
301 300 299 300 300 299 299 298 300 303 303 302 301 300 300 299 297 296 295 295 294 293
299 300 300 300 298 298 298 299 300 301 301 301 299 299 299 297 296 294 294 293 293 293
300 299 299 299 298 298 298 298 298 299 300 298 298 297 297 297 294 293 293 293 293 292
300 299 298 298 297 298 297 298 297 297 297 297 297 296 296 295 293 292 292 292 292 291
298 298 297 297 297 297 297 297 297 297 296 296 296 296 295 293 292 292 292 291 290 290
297 297 298 297 297 296 296 296 297 296 296 296 295 294 292 292 292 292 291 291 290 289
297 298 297 297 296 296 296 296 296 295 294 293 292 291 291 291 291 291 289 289 287 287
297 296 296 296 296 295 295 295 295 295 294 293 292 286 285 285 288 288 287 285 285 285
295 294 295 295 295 294 294 295 294 295 294 293 293 284 283 282 287 286 285 284 284 283
293 293 294 294 294 294 294 294 293 293 293 292 288 282 281 281 287 286 284 284 283 283
293 293 293 293 293 294 293 293 293 292 291 289 288 281 280 281 285 284 283 283 283 282
292 292 292 292 293 294 293 292 291 289 290 283 287 280 279 281 285 283 283 283 282 279
292 292 292 292 293 293 292 290 290 287 288 287 285 284 279 279 283 283 281 282 281 281

GFSNIL_sfc_thetae_015.txt.gz
Theta_e
302 300 301 301 300 300 299 299 300 301 303 303 303 303 302 301 301 299 297 296 295 294
302 301 301 301 301 299 300 298 299 301 301 302 302 301 302 300 299 299 297 296 295 294
301 302 302 302 300 299 299 299 299 299 299 300 301 302 300 299 298 296 296 294 294 294
301 301 302 301 300 299 299 299 298 298 298 298 299 299 298 297 297 296 294 294 293 293
302 301 300 300 299 299 298 298 298 298 297 297 297 297 296 295 295 294 293 293 293 291
300 300 300 299 299 299 298 297 297 297 297 296 296 295 296 296 294 293 293 293 291 291
300 300 299 299 299 298 297 297 297 297 296 296 295 294 294 293 292 292 292 292 291 290
300 299 299 298 298 297 297 296 296 296 295 296 294 292 292 292 292 291 291 290 289 288
298 298 297 297 297 297 296 296 296 295 295 294 294 286 285 285 289 289 289 287 287 287
297 296 296 295 295 295 295 296 295 295 294 294 294 285 283 282 287 288 288 287 286 285
295 293 294 294 294 295 296 295 294 293 294 293 289 284 282 282 286 288 287 286 285 284
293 293 293 293 294 295 295 294 294 293 292 292 289 283 281 281 287 287 285 285 285 283
293 293 292 293 294 294 294 293 293 292 292 285 290 282 281 281 286 285 285 285 285 281
293 293 293 293 293 293 293 293 292 290 291 290 288 287 282 281 283 284 283 282 283 284

GFSNIL_sfc_thetae_018.txt.gz
Theta_e
303 301 301 300 299 298 297 297 298 298 298 299 301 300 298 297 297 296 295 293 293 290
302 301 301 301 299 298 297 297 297 297 297 298 299 299 298 296 296 296 295 293 293 290
302 303 302 300 298 297 297 297 297 297 296 296 297 299 298 296 296 294 293 292 292 290
302 302 301 299 298 297 297 297 296 296 296 296 295 295 294 294 293 293 292 293 290 290
302 302 299 299 298 297 296 297 296 296 296 296 295 295 294 293 293 292 291 291 290 289
301 299 299 298 298 298 297 296 295 295 295 294 294 293 293 293 293 291 290 289 288 288
300 299 298 298 297 297 297 295 295 295 295 294 293 293 292 291 290 289 289 289 288 287
300 299 298 298 298 297 296 295 295 294 294 294 293 292 289 288 287 287 287 287 287 285
298 298 297 296 297 296 296 295 294 293 294 293 294 287 286 285 283 286 285 284 284 284
298 296 296 296 295 294 294 294 294 293 293 292 288 286 285 283 282 284 284 283 282 282
297 294 294 294 293 294 294 293 292 292 292 291 287 286 284 282 281 283 283 282 282 281
294 293 293 292 292 293 293 292 292 292 291 290 284 285 283 281 281 283 282 283 283 281
293 292 291 292 292 292 292 292 292 290 290 287 284 284 283 281 280 281 281 281 281 281
292 292 292 292 291 291 290 290 288 286 287 287 286 282 284 283 280 280 280 279 279 280

GFSNIL_sfc_thetae_021.txt.gz
Theta_e
296 295 295 295 294 294 293 292 293 293 293 294 295 296 295 294 294 294 292 291 290 289
296 296 296 295 295 293 293 294 293 293 293 293 293 295 295 294 293 293 292 291 289 289
296 297 296 296 295 294 293 293 293 292 293 292 292 292 295 294 294 291 290 292 289 290
296 298 297 298 294 295 293 294 293 293 292 292 292 292 291 290 291 290 290 291 289 288
298 299 297 296 296 293 293 293 293 293 293 293 292 290 290 290 291 291 289 289 288 287
299 299 297 296 295 294 293 292 293 293 293 293 291 290 291 290 290 288 289 288 287 287
298 298 296 295 295 295 294 293 292 293 293 293 292 292 291 289 287 287 287 287 286 285
299 297 296 295 295 294 294 293 293 292 292 293 292 291 288 287 286 284 284 284 284 283
297 296 295 294 293 293 294 293 293 292 292 291 292 288 288 286 283 284 283 282 282 281
295 294 293 293 293 292 291 291 292 291 291 290 288 288 287 285 281 282 282 281 280 281
293 292 292 292 291 291 291 291 290 290 290 289 287 287 286 284 280 281 281 280 280 279
293 292 292 291 290 291 290 290 290 291 289 287 285 286 285 282 280 281 281 282 281 281
292 292 291 291 290 290 289 289 289 289 288 287 283 286 285 282 278 279 279 280 280 282
292 292 291 290 290 289 288 288 286 285 284 284 282 282 285 284 279 279 279 278 278 278

GFSNIL_sfc_thetae_024.txt.gz
Theta_e
296 295 294 295 295 294 294 293 294 294 293 292 292 294 294 293 292 292 290 290 289 288
295 296 296 296 295 295 295 295 292 292 292 292 292 291 292 292 292 291 291 290 289 288
297 296 296 296 295 295 295 295 293 293 292 291 291 291 292 292 292 291 289 290 289 288
296 297 297 296 296 295 294 294 294 293 291 292 292 291 290 289 289 289 289 289 288 289
296 297 297 296 295 295 295 294 293 292 291 292 292 290 289 289 289 289 287 287 287 287
296 296 296 295 294 293 293 292 291 291 292 292 291 290 290 290 289 289 288 288 287 287
296 296 295 293 293 292 292 291 290 292 292 292 292 291 291 289 287 286 286 286 285 284
296 296 294 292 292 292 293 292 292 291 291 292 291 292 290 288 286 284 283 283 283 282
296 294 294 293 291 291 292 293 292 292 291 290 291 290 290 287 284 284 283 282 281 281
295 294 293 291 290 290 291 291 291 290 290 289 290 289 289 287 282 282 281 281 280 280
293 291 291 291 291 291 291 290 288 289 290 289 289 288 288 286 281 281 281 280 280 279
291 291 291 291 290 291 290 289 288 289 288 288 286 288 287 283 279 280 281 281 281 280
292 292 291 291 291 290 289 288 288 287 287 288 285 287 286 283 279 279 279 280 280 282
293 292 292 290 290 288 287 285 284 284 284 283 283 283 287 286 280 280 279 279 278 278

GFSNIL_sfc_thetae_027.txt.gz
Theta_e
298 299 297 296 294 294 294 294 295 294 295 293 292 293 294 293 291 290 289 289 288 289
297 298 297 296 296 295 295 295 295 294 294 292 291 290 291 291 291 291 290 289 288 287
298 297 296 295 295 295 295 296 294 294 293 291 290 291 291 291 292 290 288 288 288 287
295 296 295 295 295 295 295 294 294 294 292 290 290 291 290 289 288 288 288 288 287 287
295 296 295 294 295 295 294 294 292 292 291 290 291 291 289 287 288 287 287 286 286 286
295 295 295 293 293 292 292 291 291 290 290 291 291 290 288 288 288 288 287 287 286 286
295 296 296 295 292 292 291 290 289 290 291 292 290 290 290 288 287 286 286 286 285 285
298 297 296 294 292 291 291 291 290 291 292 290 290 290 289 288 286 284 284 284 283 282
298 296 293 293 292 291 292 292 291 291 290 289 290 290 291 287 284 284 283 282 282 281
295 293 291 291 291 291 291 291 291 290 290 289 288 290 290 289 283 282 282 281 281 280
292 291 292 292 291 291 292 291 290 289 289 288 288 289 289 288 282 281 281 281 280 279
292 291 291 291 291 292 291 289 288 288 287 286 286 288 288 285 280 280 280 281 281 280
293 292 291 291 291 291 290 288 287 285 285 286 284 287 288 285 279 279 280 280 280 284
294 293 292 292 291 290 287 285 282 282 282 283 283 283 287 288 280 280 280 280 279 280

GFSNIL_sfc_thetae_030.txt.gz
Theta_e
308 306 303 296 294 294 294 294 294 295 293 295 296 294 294 293 291 291 290 289 288 288
304 302 298 298 295 294 295 295 295 295 295 294 292 293 293 293 292 291 289 289 288 287
301 301 299 296 295 296 296 295 295 295 294 293 292 292 292 291 291 290 289 289 287 287
298 298 299 298 297 295 295 296 295 294 293 292 292 292 291 291 290 288 287 287 287 287
298 298 296 295 295 295 295 295 294 294 292 292 292 291 290 288 288 287 287 287 286 286
296 294 293 295 295 295 294 293 292 292 291 291 291 290 289 288 288 287 287 286 286 286
294 294 294 295 294 294 293 292 292 292 292 292 292 291 290 288 287 286 286 286 285 285
294 295 295 296 294 293 293 292 292 292 292 292 292 290 289 288 286 285 284 285 284 284
297 296 294 293 293 293 292 292 292 291 291 291 291 290 290 289 285 284 283 283 282 282
296 294 292 292 292 291 291 291 291 292 291 290 290 290 290 290 285 283 283 282 282 281
293 292 293 292 291 292 292 292 292 291 290 289 288 289 289 289 285 283 282 281 281 280
293 292 292 291 292 292 292 291 290 290 289 287 285 288 288 287 283 281 281 281 281 281
293 292 292 292 292 292 291 290 289 287 286 285 283 286 287 287 280 280 280 280 281 285
295 294 293 292 291 291 290 287 283 283 282 282 283 283 287 287 281 281 281 281 281 281

GFSNIL_sfc_thetae_036.txt.gz
Theta_e
327 326 322 322 312 306 305 305 308 308 309 308 305 306 306 304 303 304 304 303 303 301
324 324 323 322 311 308 309 309 309 308 306 306 305 305 305 302 303 304 305 304 303 301
324 324 324 322 315 313 312 312 308 307 305 303 302 303 303 300 303 304 304 302 301 300
326 325 324 322 317 314 313 311 305 306 304 301 302 301 300 301 302 300 300 301 300 299
326 325 322 318 316 314 311 309 307 306 303 299 300 300 299 299 297 298 298 299 299 298
320 319 318 314 313 311 310 309 308 306 301 298 299 299 300 297 296 297 298 298 298 298
317 314 313 312 311 310 309 308 305 299 298 298 299 298 297 298 298 299 297 297 298 297
315 315 314 313 311 309 306 302 298 296 297 296 297 297 298 298 296 297 296 297 298 298
309 308 307 304 301 299 297 295 295 295 297 297 296 292 292 293 294 297 296 296 297 298
306 304 302 299 297 294 294 296 296 296 297 297 298 293 292 291 292 294 296 296 296 296
303 301 300 298 296 295 296 296 296 296 298 298 297 292 291 290 295 295 295 295 295 295
301 300 299 299 298 298 300 299 299 297 297 296 294 291 291 290 294 293 293 294 294 294
301 300 300 299 299 300 301 297 295 293 292 292 296 292 290 290 293 292 293 293 294 290
300 299 299 298 297 296 297 296 296 294 295 295 294 294 290 289 291 291 292 291 292 293

GFSNIL_sfc_thetae_039.txt.gz
Theta_e
325 325 327 329 325 323 322 318 311 308 308 309 312 312 310 306 309 308 307 305 305 304
327 326 328 327 326 324 316 309 307 308 307 310 311 307 307 307 303 305 306 305 306 304
327 329 329 327 324 320 314 311 310 309 309 309 307 307 307 303 305 304 305 306 304 303
326 326 326 326 323 317 314 312 311 311 309 306 306 306 304 302 301 302 304 302 301 301
328 327 325 324 322 319 316 315 313 310 306 305 306 304 300 298 301 300 298 298 299 299
326 325 323 322 320 317 316 313 310 307 305 305 302 300 299 300 299 299 299 299 300 299
321 320 319 316 315 312 312 310 309 307 304 301 299 298 298 299 298 299 298 299 299 299
320 318 315 313 312 311 310 308 302 301 298 299 298 298 297 298 299 299 296 297 299 300
317 316 314 313 311 309 303 301 298 297 296 297 296 293 293 294 299 297 295 295 298 299
310 308 307 304 302 300 299 299 297 298 296 296 296 293 292 292 297 294 293 293 295 297
307 305 303 302 300 299 299 298 296 296 296 298 298 292 292 290 292 294 296 297 296 296
304 303 302 301 300 300 300 299 299 300 298 297 297 292 291 291 296 294 294 294 295 294
304 303 302 300 299 300 299 298 298 297 296 294 297 292 291 291 293 291 292 293 294 291
303 301 300 300 300 299 298 298 297 295 296 295 294 294 290 289 290 289 287 288 289 291

GFSNIL_sfc_thetae_042.txt.gz
Theta_e
329 326 326 325 324 321 319 319 319 318 312 310 309 309 309 309 307 305 303 304 301 300
328 327 325 324 325 321 321 318 313 311 309 308 309 308 306 304 304 303 302 302 301 301
328 325 323 325 324 322 319 312 310 309 307 307 307 306 304 304 303 302 301 301 301 300
327 325 326 325 324 323 313 312 310 308 307 306 305 305 303 302 301 300 300 300 299 299
326 324 323 323 322 316 313 312 311 309 307 306 305 304 302 301 298 299 297 298 299 299
322 324 322 322 319 315 313 312 311 309 306 304 304 302 299 298 299 298 298 298 298 298
321 320 316 315 313 313 312 309 307 305 304 302 300 299 298 298 297 296 297 298 297 298
318 317 314 313 312 310 309 308 304 301 299 298 297 298 298 297 296 296 296 297 297 297
317 315 314 312 310 307 304 300 298 297 297 296 296 293 295 296 296 296 296 294 295 296
314 311 308 305 302 299 298 297 296 296 296 295 296 293 293 292 294 294 293 291 293 293
307 304 302 301 299 298 297 296 296 295 296 295 296 292 292 291 292 293 293 293 293 291
304 302 301 299 298 297 297 296 295 296 297 297 294 292 291 291 291 291 289 292 291 290
303 302 300 300 299 299 299 298 297 296 296 294 295 292 291 290 286 285 283 286 287 288
302 300 299 298 299 298 297 296 294 293 293 293 289 287 287 286 283 281 281 281 282 282

GFSNIL_sfc_thetae_045.txt.gz
Theta_e
323 322 321 321 320 320 319 319 317 316 314 315 313 310 308 309 307 307 305 302 302 300
324 322 321 320 319 320 318 316 315 314 311 310 310 308 307 307 306 305 303 302 300 300
325 322 321 320 318 316 315 312 312 311 309 307 307 307 306 304 304 303 302 301 300 300
324 322 320 319 318 318 311 310 310 309 306 307 306 305 304 304 302 301 300 300 299 299
324 321 320 320 320 318 313 311 309 308 307 306 305 304 303 302 301 300 298 298 298 298
322 321 321 320 317 312 311 311 310 308 307 305 304 303 302 299 298 298 298 298 298 297
319 319 317 314 313 311 312 309 308 307 305 304 302 300 299 298 297 297 297 298 298 298
313 313 312 312 311 311 310 308 305 303 301 300 298 298 298 297 296 296 295 296 297 297
313 312 312 311 309 307 304 302 300 298 298 296 297 293 294 295 295 295 295 295 294 295
314 312 309 305 302 299 298 297 296 296 296 295 295 293 293 293 295 294 293 293 293 293
305 302 300 299 298 296 295 294 291 292 293 294 295 292 292 290 292 292 293 293 292 288
300 298 296 295 294 293 293 293 292 293 292 291 291 291 291 292 292 291 286 287 286 285
299 297 296 294 294 293 293 293 294 294 295 293 293 290 290 289 283 281 280 281 283 285
299 297 297 296 296 295 295 295 293 290 289 287 285 284 286 284 280 279 279 279 279 279

GFSNIL_sfc_thetae_051.txt.gz
Theta_e
312 314 315 315 314 313 314 316 318 319 319 319 318 319 316 314 312 310 308 306 306 305
311 313 315 317 316 315 315 316 315 319 318 318 316 315 311 311 308 308 307 306 305 303
312 315 316 317 318 316 318 316 314 316 315 314 313 311 308 306 308 307 305 305 303 300
313 316 317 318 318 319 317 317 316 315 315 313 310 309 307 306 306 305 304 302 301 300
315 317 317 318 319 319 319 317 317 316 315 313 311 309 307 305 305 304 302 300 300 299
316 317 318 319 320 320 320 319 318 315 312 311 309 308 306 305 303 302 301 300 299 299
316 318 320 321 320 320 320 319 313 311 311 311 308 307 305 305 302 300 299 300 299 299
317 319 320 319 320 321 319 316 312 309 309 306 306 304 304 301 299 298 298 298 298 297
319 319 318 319 320 316 312 312 310 309 307 304 303 295 295 297 298 298 297 296 296 296
319 319 318 316 312 311 309 306 304 302 303 301 298 293 294 294 297 296 295 295 294 293
318 317 312 310 308 304 303 301 300 299 298 299 296 292 292 291 294 294 293 292 291 287
312 308 307 304 302 300 299 298 298 297 298 296 293 291 291 292 292 289 286 286 285 285
306 305 302 300 298 298 297 295 294 292 293 292 292 290 290 290 287 284 282 282 282 283
301 299 297 295 294 294 293 292 288 285 286 288 289 289 289 288 285 283 281 280 278 278

GFSNIL_sfc_thetae_054.txt.gz
Theta_e
308 308 309 310 310 310 311 311 312 314 315 314 315 315 316 316 314 313 311 310 309 307
309 309 309 310 312 313 312 313 312 314 316 317 318 317 317 317 315 312 311 310 307 306
309 309 310 311 312 313 314 312 312 312 314 316 318 318 318 316 313 309 307 308 306 304
309 309 310 311 313 314 314 313 314 313 314 315 315 315 313 314 311 309 307 306 305 303
310 311 310 311 314 315 316 317 317 317 316 316 314 312 311 310 308 307 304 303 302 300
311 311 311 313 315 317 317 317 317 318 316 316 314 312 311 311 309 307 305 302 301 300
311 312 313 314 315 316 318 317 318 316 317 316 314 312 311 309 307 305 303 303 302 300
311 312 313 314 316 317 318 318 318 318 317 314 312 309 308 307 305 303 301 300 300 300
312 312 312 314 316 317 318 318 319 316 314 310 308 300 298 303 302 301 300 297 297 297
314 313 314 315 317 318 318 317 312 310 309 308 308 298 295 295 299 298 297 296 295 294
314 315 315 317 317 316 311 309 307 303 304 301 297 294 293 293 296 295 295 294 292 288
313 314 312 310 307 306 302 301 300 299 298 297 293 292 292 293 292 289 287 287 287 285
309 307 305 302 300 299 299 296 295 293 295 292 291 291 291 290 288 284 283 283 283 284
304 301 298 296 296 296 294 290 288 287 287 289 290 289 289 289 286 283 282 280 280 280

GFSNIL_sfc_thetae_057.txt.gz
Theta_e
318 318 318 318 317 317 315 316 320 319 320 321 322 322 323 324 323 322 321 320 315 312
315 316 316 318 318 318 319 318 318 319 320 321 321 322 322 323 322 321 320 317 316 314
315 315 316 317 317 317 319 319 319 319 320 321 321 322 322 323 322 319 318 317 315 314
315 316 316 316 317 317 319 319 318 318 318 319 320 322 323 322 320 317 316 318 316 318
316 316 316 316 317 318 318 320 319 320 319 320 321 320 321 319 318 316 314 314 312 313
314 314 313 313 314 315 316 317 320 321 321 319 319 317 315 317 316 314 313 312 310 310
314 314 314 315 315 315 316 316 318 319 320 321 321 318 316 314 314 313 311 310 310 308
315 316 316 316 317 317 317 316 318 319 318 320 320 319 319 315 313 311 308 307 306 306
316 316 316 317 317 318 318 319 319 320 318 318 318 305 301 308 312 310 308 303 302 300
316 315 315 316 316 317 318 320 320 319 319 318 319 300 299 299 309 306 303 299 298 296
316 315 315 315 315 317 319 319 318 317 316 315 311 298 298 295 301 299 298 297 295 292
317 316 317 316 317 318 312 308 304 303 302 301 296 295 293 295 295 292 290 291 290 288
317 317 316 313 309 303 302 298 297 295 295 293 293 291 292 292 289 286 285 285 285 286
309 305 302 299 298 296 294 291 289 287 289 291 291 290 290 290 288 285 283 283 281 282

GFSNIL_sfc_thetae_060.txt.gz
Theta_e
323 322 316 318 318 317 318 320 320 319 323 323 321 322 326 325 324 326 326 326 325 324
323 323 322 321 319 319 322 318 318 318 320 323 324 324 324 325 324 326 326 325 326 325
324 323 324 325 323 323 324 324 322 321 321 322 323 323 323 324 325 325 326 325 324 325
322 323 324 323 325 324 326 325 324 323 322 321 322 323 324 324 323 323 325 326 326 323
323 323 322 323 323 326 325 326 325 324 324 323 323 325 324 324 322 323 324 324 323 320
322 322 322 323 323 323 323 324 323 323 324 324 324 324 324 323 323 324 321 319 319 317
322 322 322 322 323 323 322 321 321 323 323 322 323 322 323 322 323 321 318 316 316 316
322 321 321 321 321 321 321 321 321 321 322 323 321 321 323 321 321 318 316 318 315 314
321 321 320 320 320 320 321 320 320 320 320 321 321 308 302 312 323 319 317 315 313 313
320 320 320 320 320 319 320 321 320 321 321 322 324 303 300 300 320 317 316 314 310 303
320 320 320 320 319 320 321 321 321 322 322 320 319 302 299 298 312 314 311 308 303 299
321 320 320 319 320 321 321 321 321 321 322 321 318 298 298 298 300 296 293 294 294 293
322 321 321 321 321 321 321 318 305 297 298 294 297 292 294 297 294 289 287 287 288 288
322 321 322 319 312 305 297 293 290 288 289 290 291 290 290 290 289 286 285 284 284 285

GFSNIL_sfc_thetae_063.txt.gz
Theta_e
321 322 320 318 318 318 319 322 325 327 326 326 324 322 325 325 324 325 326 326 327 325
322 321 321 322 321 318 322 324 325 325 325 325 325 326 325 322 320 323 321 325 326 325
322 324 322 323 322 322 322 325 325 326 325 324 322 321 324 322 322 322 324 324 324 325
322 325 324 324 326 325 326 325 325 323 323 323 322 322 321 324 324 323 323 325 325 323
326 326 325 326 327 329 326 326 326 326 323 322 323 323 322 322 323 323 322 323 324 323
327 327 328 328 328 328 328 327 326 326 325 325 324 324 324 324 323 324 324 324 323 323
326 326 327 328 328 327 328 327 325 324 325 326 325 325 325 324 324 324 324 324 324 324
326 327 326 327 327 327 327 326 327 326 327 326 326 324 325 325 324 324 323 323 323 322
325 325 325 326 326 327 326 326 326 325 324 325 323 309 303 313 324 323 322 321 322 319
325 324 325 325 324 324 325 326 324 324 324 323 324 304 301 299 320 322 323 321 319 318
325 324 325 324 323 324 324 324 323 323 324 323 323 302 300 298 315 319 321 321 320 317
325 323 324 323 324 324 324 324 324 324 323 321 322 300 296 299 311 310 298 295 296 295
324 323 323 324 325 325 325 323 321 311 301 294 299 292 293 297 295 289 287 287 287 287
323 324 324 325 323 321 313 299 293 289 290 290 290 290 290 291 289 286 285 284 284 285